User: anonymous   Login
Location: Caltech
(34.1382°N, 118.1253°W)
Time: 00:35:44
(UTC-08:00)
Language:

Meteor 2-4 Rocket - Orbit

View from above orbital plane
View from above orbital plane
View from above satellite
View from above satellite

Ground track
Ground track

The orbit data is extracted from the following two-line orbital elements,

1 11289U 79021B   16340.99090123  .00000125  00000-0  59761-4 0  9997
2 11289  81.2463 352.6277 0076910  62.3079 298.5869 14.11551798943587
Epoch (UTC): 05 December 2016 23:46:53
Eccentricity: 0.0076910
inclination: 81.2463°
perigee height: 798 km
apogee height: 909 km
right ascension of ascending node: 352.6277°
argument of perigee: 62.3079°
revolutions per day: 14.11551798
mean anomaly at epoch: 298.5869°
orbit number at epoch: 94358

The dashed part of the orbit path shows where the satellite is in the earth's shadow,  

DLR